ATLAS 5 CENTAUR DEB, 44655

Orbit data source: Space-Track

ATLAS 5 CENTAUR DEB, 44655 is space debris in HEO originally from a launch on Wed, 17 Oct 2018 UTC launched from the Air Force Eastern Test Range (AFETR). Debris objects in space refer to the collection of defunct objects orbiting the Earth. Examples of debris include non-operational satellites, rocket bodies, and fragments generated from explosions, collisions, or faulty payload assembly.

Loading next visibility...
Identifier
44655, 2018-079R
Orbit
HEO
Country
Flag of USUS
Related business
Flag of USUnited Launch Alliance/Lockheed Martin (US)
Manufacturer
ULA Decatur
Mission
Spacecraft
Bus & Motor
Unknown
Mass
Unknown
Launch date (UTC)
2018-10-17 (8 years ago)
Launch vehicle
Unknown
Launch site
Air Force Eastern Test Range (AFETR)
Object type
Payload
Rocket body
Debris
Shape & HBR
Unknown shape, 1.1 m
Radar Cross Section
Medium (>0.1 m² and <1 m²)

Expand to show TLE details & history
Last TLE update: 2 weeks ago

TLE from 2 weeks ago
0 ATLAS 5 CENTAUR DEB
1 44655U 18079R   26242.37547574 -.00000137  00000-0  00000-0 0  9999
2 44655  13.9264  13.5230 4735732 352.5422   2.2397  1.83835076 52853
Epoch: 2026-08-30T09:00Z
TLE epoch observation values (Epoch: 2026-08-30T09:00:41.103Z)
Latitude
-0.00003°
Longitude
-100.20251°
Altitude
8,460.694 km
Speed
6.29 km/s
True Right ascension
00h 54m 09s
True Declination
0° 00' 00"
Sunlit
Object was in daylight at epoch
Visualization orbit readout
Latitude
Unknown
Longitude
Unknown
Altitude
Unknown
Speed
Unknown
Apparent Right ascension
Unknown
Apparent Declination
Unknown
Sunlit
N/A
Visualization observer readout
Local Sidereal Time
14:52:30
Azimuth
Unknown
Elevation
Unknown
Doppler factor
Unknown
Orbital elements
Apogee altitude
35,103.304 km
Perigee altitude
8,440.904 km
Semi-major axis
28,150.241 km
Eccentricity
0.47357
Inclination
13.9264°
RAAN
13.523°
Arg. of periapsis
352.5422°
True anomaly
7.10645°
Mean anomaly
2.2397°
Eccentric anomaly
4.25102°
Mean motion
0.45954 °/min
Orbital period
783.4 mins
BSTAR
0
Loading maneuver chart data...
Computing Atmospheric mass density...

Documentation

Showing up to 5 results
|